Simultaneous Nadir Overpasses (SNOs) Predictions

Prediction of SNOs between FY3D and TERRA Satellite Orbit:

Table of predicted SNOs for the next 14.0 days since TLE Epoch: 9/21/2019
Index Date (FY3D) Time (FY3D) Lat,Lon (FY3D) SZA (FY3D ) Date (TERRA) Time (TERRA) Lat,Lon (TERRA) SZA (TERRA ) Distance(km) Time Diff (sec)
1 09/21/2019 06:50:13 -68.86,-103.54 112.04 09/21/2019 06:51:18 -68.84,-103.57 112.06 2.57 65
2 09/21/2019 07:40:57 68.73, 63.94 67.85 09/21/2019 07:40:45 68.74, 63.94 67.85 0.34 12
3 09/21/2019 08:31:32 -68.32,-128.19 112.55 09/21/2019 08:30:20 -68.35,-128.90 112.53 29.15 72
4 09/23/2019 23:06:38 -68.84, 12.38 111.02 09/23/2019 23:07:46 -68.86, 12.32 111.00 2.73 68
5 09/23/2019 23:57:22 68.72, 179.85 68.88 09/23/2019 23:57:13 68.75, 179.83 68.90 3.29 9
6 09/24/2019 00:47:59 -68.41, -12.42 111.42 09/24/2019 00:46:46 -68.47, -12.88 111.37 20.11 73
7 09/26/2019 15:23:05 -68.88, 128.22 109.94 09/26/2019 15:24:15 -68.86, 128.20 109.95 1.76 70
8 09/26/2019 16:13:49 68.76, -64.31 69.96 09/26/2019 16:13:42 68.75, -64.29 69.95 1.04 7
9 09/26/2019 17:04:27 -68.49, 103.36 110.29 09/26/2019 17:03:14 -68.53, 103.07 110.26 12.40 73
10 09/29/2019 07:39:32 -68.91,-115.94 108.86 09/29/2019 07:40:43 -68.92,-115.85 108.85 3.49 71
11 09/29/2019 08:30:15 68.74, 51.60 70.99 09/29/2019 08:30:11 68.74, 51.58 70.99 0.92 4
12 09/29/2019 09:20:55 -68.58,-140.87 109.16 09/29/2019 09:19:42 -68.59,-140.98 109.16 4.71 73
13 10/01/2019 23:56:00 -69.00, -0.17 107.73 10/01/2019 23:57:11 -68.97, 0.09 107.76 10.81 71
14 10/02/2019 00:46:41 68.73, 167.51 72.02 10/02/2019 00:46:40 68.74, 167.45 72.02 2.59 1
15 10/02/2019 01:37:22 -68.62, -25.03 108.08 10/02/2019 01:36:10 -68.64, -25.04 108.07 2.50 72
16 10/04/2019 16:12:27 -69.09, 115.60 106.61 10/04/2019 16:13:38 -69.01, 116.02 106.68 18.91 71
17 10/04/2019 17:03:07 68.77, -76.66 73.10 10/04/2019 17:03:07 68.78, -76.62 73.10 1.70 0
18 10/04/2019 17:53:48 -68.65, 90.82 107.01 10/04/2019 17:52:38 -68.63, 90.82 107.04 2.94 70




NCC Satellite Simultaneous Nadir Overpasses (SNOs) Prediction Service
